Change the Weather History Date:

Wednesday, June 26, 2013

  Actual Average Record
Temperature  
Mean Temperature 76 °F -  
Max Temperature 86 °F 81 °F 95 °F (1991)
Min Temperature 66 °F 60 °F 48 °F (1968)
Cooling Degree Days 11    
Growing Degree Days 26 (Base 50)    
Moisture  
Dew Point 69 °F    
Average Humidity 80    
Maximum Humidity 100    
Minimum Humidity 48    
Precipitation  
Precipitation 0.00 in - - ()
Sea Level Pressure  
Sea Level Pressure 29.73 in    
Wind  
Wind Speed 4 mph (West)    
Max Wind Speed 17 mph    
Max Gust Speed 24 mph    
Visibility 7 miles    
Events Fog , Rain , Thunderstorm    
Averages and records for this station are not official NWS values.
T = Trace of Precipitation, MM = Missing Value Source: NWS Daily Summary

Daily Weather History Graph

Daily Weather History Graph

Search for Another Location

Airport or City:

Trip Planner

Search our weather history database for the weather conditions in past years. The results will help you decide how hot, cold, wet, or windy it might be!

Date:

Astronomy

Jun. 26, 2013 Rise Set
Actual Time 5:29 AM CDT 9:02 PM CDT
Civil Twilight 4:52 AM CDT 9:39 PM CDT
Nautical Twilight 4:03 AM CDT 10:28 PM CDT
Astronomical Twilight 2:59 AM CDT 11:31 PM CDT
Moon 11:14 PM CDT (6/26) 9:31 AM CDT (6/26)
Length of Visible Light 16h 46m
Length of Day
15h 33m
Waning Gibbous, 85% of the Moon is Illuminated
Jun 26
Waning Gibbous
Jun 29
Last Quarter
Jul 8
New
Jul 15
First Quarter
Jul 22
Full

Hourly Weather History & Observations

Time (CDT) Temp. Heat Index Dew Point Humidity Pressure Visibility Wind Dir Wind Speed Gust Speed Precip Events Conditions
12:11 AM 73.4 °F - 71.6 °F 94% 29.73 in 7.0 mi Calm Calm - N/A   Clear
12:31 AM 71.6 °F - 69.8 °F 94% 29.71 in 7.0 mi Calm Calm - N/A   Clear
12:51 AM 71.6 °F - 69.8 °F 94% 29.70 in 7.0 mi Calm Calm - N/A   Clear
1:11 AM 71.6 °F - 71.6 °F 100% 29.70 in 7.0 mi Calm Calm - N/A   Clear
1:31 AM 71.6 °F - 69.8 °F 94% 29.70 in 7.0 mi Calm Calm - N/A   Clear
1:51 AM 71.6 °F - 69.8 °F 94% 29.70 in 7.0 mi Calm Calm - N/A   Clear
2:11 AM 71.6 °F - 69.8 °F 94% 29.70 in 7.0 mi Calm Calm - N/A   Clear
2:31 AM 71.6 °F - 69.8 °F 94% 29.69 in 5.0 mi Calm Calm - N/A   Clear
2:51 AM 71.6 °F - 69.8 °F 94% 29.69 in 5.0 mi Calm Calm - N/A   Clear
3:12 AM 69.8 °F - 68.0 °F 94% 29.69 in 3.0 mi Calm Calm - N/A   Clear
3:31 AM 69.8 °F - 68.0 °F 94% 29.68 in 3.0 mi Calm Calm - N/A   Clear
3:51 AM 68.0 °F - 68.0 °F 100% 29.69 in 2.5 mi Calm Calm - N/A   Clear
4:12 AM 68.0 °F - 68.0 °F 100% 29.69 in 2.0 mi Calm Calm - N/A   Clear
4:31 AM 66.2 °F - 66.2 °F 100% 29.70 in 1.8 mi Calm Calm - N/A   Mist
4:51 AM 68.0 °F - 68.0 °F 100% 29.70 in 0.5 mi Calm Calm - N/A Fog Fog
5:12 AM 68.0 °F - 68.0 °F 100% 29.70 in 1.0 mi Calm Calm - N/A   Overcast
5:31 AM 68.0 °F - 66.2 °F 94% 29.68 in 0.2 mi East 3.5 mph - N/A Fog Fog
5:51 AM 68.0 °F - 66.2 °F 94% 29.69 in 0.2 mi Calm Calm - N/A Fog Fog
6:11 AM 68.0 °F - 68.0 °F 100% 29.70 in 1.0 mi Calm Calm - N/A   Overcast
6:31 AM 69.8 °F - 69.8 °F 100% 29.72 in 1.2 mi Calm Calm - N/A   Overcast
6:52 AM 69.8 °F - 69.8 °F 100% 29.70 in 0.2 mi East 4.6 mph - N/A Fog Fog
7:11 AM 69.8 °F - 69.8 °F 100% 29.70 in 0.2 mi East 4.6 mph - N/A Fog Fog
7:31 AM 71.6 °F - 69.8 °F 94% 29.70 in 1.8 mi SSE 3.5 mph - N/A   Overcast
7:51 AM 71.6 °F - 71.6 °F 100% 29.67 in 5.0 mi SE 5.8 mph - N/A   Scattered Clouds
8:11 AM 73.4 °F - 73.4 °F 100% 29.70 in 7.0 mi South 8.1 mph - N/A   Scattered Clouds
8:31 AM 75.2 °F - 71.6 °F 89% 29.68 in 7.0 mi SE 5.8 mph - N/A   Scattered Clouds
8:51 AM 75.2 °F - 71.6 °F 89% 29.69 in 7.0 mi SE 4.6 mph - N/A   Clear
9:11 AM 75.2 °F - 71.6 °F 89% 29.69 in 7.0 mi Calm Calm - N/A   Clear
9:32 AM 75.2 °F - 71.6 °F 89% 29.70 in 7.0 mi South 5.8 mph - N/A   Clear
9:51 AM 75.2 °F - 71.6 °F 89% 29.70 in 10.0 mi South 8.1 mph - N/A   Clear
10:11 AM 77.0 °F - 73.4 °F 89% 29.72 in 10.0 mi Calm Calm - N/A   Clear
10:32 AM 78.8 °F - 73.4 °F 83% 29.71 in 7.0 mi South 4.6 mph - N/A   Scattered Clouds
10:51 AM 78.8 °F - 73.4 °F 83% 29.72 in 10.0 mi WSW 4.6 mph - N/A   Mostly Cloudy
11:11 AM 78.8 °F - 73.4 °F 83% 29.72 in 7.0 mi SW 4.6 mph - N/A   Mostly Cloudy
11:31 AM 78.8 °F - 73.4 °F 83% 29.73 in 10.0 mi West 3.5 mph - N/A   Mostly Cloudy
11:51 AM 78.8 °F - 73.4 °F 83% 29.72 in 7.0 mi West 5.8 mph - N/A   Mostly Cloudy
12:11 PM 80.6 °F 85.4 °F 73.4 °F 79% 29.72 in 10.0 mi WSW 6.9 mph - N/A   Scattered Clouds
12:31 PM 80.6 °F 85.4 °F 73.4 °F 79% 29.72 in 7.0 mi WSW 8.1 mph - N/A Rain Light Rain
12:51 PM 80.6 °F 85.4 °F 73.4 °F 79% 29.71 in 7.0 mi WSW 8.1 mph - N/A   Scattered Clouds
1:11 PM 82.4 °F 88.2 °F 73.4 °F 74% 29.72 in 10.0 mi WSW 5.8 mph - N/A   Clear
1:31 PM 82.4 °F 88.2 °F 73.4 °F 74% 29.71 in 10.0 mi West 9.2 mph - N/A   Scattered Clouds
1:51 PM 82.4 °F 87.2 °F 71.6 °F 70% 29.70 in 10.0 mi WSW 11.5 mph 18.4 mph N/A Thunderstorm Scattered Clouds
2:11 PM 82.4 °F 87.2 °F 71.6 °F 70% 29.71 in 10.0 mi West 13.8 mph 19.6 mph N/A Thunderstorm Clear
2:31 PM 84.2 °F 89.6 °F 71.6 °F 66% 29.71 in 10.0 mi West 11.5 mph 18.4 mph N/A   Scattered Clouds
2:51 PM 82.4 °F 87.2 °F 71.6 °F 70% 29.72 in 10.0 mi West 9.2 mph - N/A   Scattered Clouds
3:11 PM 84.2 °F 89.6 °F 71.6 °F 66% 29.72 in 10.0 mi West 11.5 mph 17.3 mph N/A   Scattered Clouds
3:31 PM 86.0 °F 90.4 °F 69.8 °F 58% 29.73 in 10.0 mi West 11.5 mph - N/A   Scattered Clouds
3:51 PM 86.0 °F 88.2 °F 66.2 °F 51% 29.73 in 10.0 mi WNW 15.0 mph 18.4 mph N/A   Clear
4:12 PM 84.2 °F 88.4 °F 69.8 °F 62% 29.74 in 10.0 mi West 9.2 mph - N/A   Scattered Clouds
4:31 PM 86.0 °F 87.3 °F 64.4 °F 48% 29.74 in 10.0 mi WNW 15.0 mph 20.7 mph N/A   Scattered Clouds
4:51 PM 84.2 °F 87.3 °F 68.0 °F 58% 29.74 in 10.0 mi West 15.0 mph 24.2 mph N/A   Clear
5:11 PM 84.2 °F 85.6 °F 64.4 °F 51% 29.74 in 10.0 mi West 16.1 mph - N/A   Clear
5:31 PM 84.2 °F 85.6 °F 64.4 °F 51% 29.74 in 10.0 mi WNW 12.7 mph - N/A   Clear
5:51 PM 84.2 °F 85.6 °F 64.4 °F 51% 29.74 in 10.0 mi West 15.0 mph 23.0 mph N/A   Clear
6:11 PM 82.4 °F 83.9 °F 64.4 °F 54% 29.74 in 10.0 mi WNW 17.3 mph 21.9 mph N/A   Clear
6:31 PM 82.4 °F 83.9 °F 64.4 °F 54% 29.75 in 10.0 mi WNW 12.7 mph 19.6 mph N/A   Clear
6:52 PM 82.4 °F 83.9 °F 64.4 °F 54% 29.75 in 10.0 mi WNW 12.7 mph - N/A   Clear
7:11 PM 82.4 °F 84.6 °F 66.2 °F 58% 29.76 in 10.0 mi WNW 11.5 mph - N/A   Clear
7:31 PM 80.6 °F 82.7 °F 66.2 °F 61% 29.76 in 10.0 mi WNW 10.4 mph - N/A   Clear
7:52 PM 80.6 °F 82.7 °F 66.2 °F 61% 29.76 in 10.0 mi WNW 10.4 mph - N/A   Clear
8:11 PM 78.8 °F - 66.2 °F 65% 29.77 in 10.0 mi West 5.8 mph - N/A   Clear
8:31 PM 77.0 °F - 66.2 °F 69% 29.77 in 10.0 mi West 5.8 mph - N/A   Clear
8:52 PM 75.2 °F - 64.4 °F 69% 29.77 in 10.0 mi West 6.9 mph - N/A   Clear
9:11 PM 73.4 °F - 64.4 °F 73% 29.78 in 10.0 mi West 5.8 mph - N/A   Clear
9:31 PM 73.4 °F - 64.4 °F 73% 29.79 in 10.0 mi West 8.1 mph - N/A   Clear
9:52 PM 73.4 °F - 64.4 °F 73% 29.80 in 10.0 mi West 6.9 mph - N/A   Clear
10:11 PM 73.4 °F - 64.4 °F 73% 29.81 in 10.0 mi West 6.9 mph - N/A   Clear
10:31 PM 71.6 °F - 64.4 °F 78% 29.81 in 10.0 mi WNW 6.9 mph - N/A   Clear
10:52 PM 71.6 °F - 62.6 °F 73% 29.82 in 10.0 mi WNW 8.1 mph - N/A   Clear
11:11 PM 71.6 °F - 62.6 °F 73% 29.83 in 10.0 mi West 5.8 mph - N/A   Clear
11:31 PM 71.6 °F - 62.6 °F 73% 29.83 in 10.0 mi West 5.8 mph - N/A   Clear
11:52 PM 71.6 °F - 62.6 °F 73% 29.83 in 10.0 mi West 3.5 mph - N/A   Clear